Location: Gudip?du
(17.0263°N, 80.8301°E)
Time: 06:51:33
(UTC+00:00)

Cosmos 773 Rocket - Pass Details

Date: 03 August 2024
Orbit: 742 x 775 km, 74.1° (Epoch: 10 September)

Event Time Altitude Azimuth Distance (km) Brightness Sun altitude
Exits shadow 22:32:16 67° 257° (WSW) 806 3.8 -24.0°
Maximum altitude 22:32:35 69° 284° (WNW) 794 3.8 -23.9°
Drops below altitude 10° 22:37:42 10° 7° (N) 2,267 6.9 -22.8°
Sets 22:40:05 0° 10° (N) 3,197 7.7 -22.3°
